Voltar ao catálogo

STARLINK-37184

AtivoComunicaçõesSSO
NORAD 68393·PAYLOAD·🇺🇸 United States

Lançado Mar 26, 2026 de Vandenberg Space Force Base

Loading…

Próximas Passagens (próximas 24 horas)

TLE

AtualizadoSource: CelesTrak SupGP

Época: Sep 14, 2026, 22:36 UTC

1 68393C 26063P   26257.94215278 -.00022256  00000+0 -69053-3 0  2577
2 68393  97.2860  38.9083 0001478  97.9773  82.9626 15.33466528    13

Acompanhe STARLINK-37184 em tempo real com AllMySat

Download on the App Store